Home   Weather   Newark   Past weeks
Flag for USA

Past Weather in Newark, New Jersey, USA — Yesterday and Last 2 Weeks

Now
53 °F

Passing clouds.


Feels Like: 47 °F
Forecast: 51 / 46 °F
Wind: 25 mph from Northwest

Location: Newark International Airport

Current Time: Apr 2, 2020 at 10:23:44 pm

Latest Report: Apr 2, 2020 at 8:51 pm


Visibility: 10 mi

Pressure: 29.67 "Hg

Humidity: 38%

Dew Point: 28 °F

Location of NewarkLocation

Past Weather in Newark — Graph

°F

Newark Temperature Yesterday

Maximum temperature yesterday: 56 °F (at 3:51 pm)
Minimum temperature yesterday: 39 °F (at 5:51 am)
Average temperature yesterday: 47 °F

High & Low Weather Summary for the Past Weeks

 TemperatureHumidityPressure
High78 °F (Mar 20, 4:51 pm)100% (Mar 19, 6:31 am)30.69 "Hg (Mar 19, 6:31 am)
Low33 °F (Mar 22, 7:51 am)14% (Mar 27, 5:51 pm)29.62 "Hg (Apr 2, 3:51 pm)
Average47 °F69%30.06 "Hg
* Reported Mar 18 8:51 pm — Apr 2 8:51 pm, Newark. Weather by CustomWeather, © 2020

Note: Actual official high and low records may vary slightly from our data, if they occured in-between our weather recording intervals... More about our weather records

Newark Weather History for the Previous 24 Hours

Scroll right to see more
 ConditionsComfort  
Time TempWeatherWind HumidityBarometerVisibility
8:51 pm
Thu, Apr 2
53 °FPassing clouds.25 mph38%29.67 "Hg10 mi
6:51 pm55 °FPartly sunny.16 mph34%29.63 "Hg10 mi
5:51 pm56 °FPartly sunny.25 mph34%29.62 "Hg10 mi
4:51 pm58 °FBroken clouds.28 mph32%29.62 "Hg10 mi
3:51 pm58 °FBroken clouds.22 mph32%29.62 "Hg10 mi
2:51 pm59 °FScattered clouds.23 mph29%29.63 "Hg10 mi
1:51 pm56 °FScattered clouds.20 mph33%29.65 "Hg10 mi
12:51 pm56 °FScattered clouds.25 mph33%29.67 "Hg10 mi
11:51 am53 °FScattered clouds.20 mph37%29.70 "Hg10 mi
10:51 am50 °FOvercast.18 mph43%29.72 "Hg10 mi
9:51 am47 °FPartly sunny.21 mph46%29.74 "Hg10 mi
8:51 am45 °FPassing clouds.22 mph49%29.75 "Hg10 mi
7:51 am41 °FPassing clouds.14 mph55%29.77 "Hg10 mi
6:51 am39 °FPassing clouds.14 mph57%29.76 "Hg10 mi
5:51 am39 °FPassing clouds.13 mph57%29.76 "Hg10 mi
4:51 am40 °FClear.12 mph55%29.75 "Hg10 mi
3:51 am41 °FClear.15 mph53%29.75 "Hg10 mi
2:51 am42 °FClear.15 mph51%29.77 "Hg10 mi
1:51 am44 °FPassing clouds.16 mph47%29.77 "Hg10 mi
12:51 am45 °FPassing clouds.17 mph45%29.77 "Hg10 mi
11:51 pm
Wed, Apr 1
47 °FPassing clouds.16 mph42%29.77 "Hg10 mi
10:51 pm48 °FPassing clouds.9 mph43%29.76 "Hg10 mi
Weather by CustomWeather, © 2020

See weather overview

Advertising